FW5441 Weather Reports


time (UTC)temp
C
wind
direction
speed
KPH
gust
KPH
rain 1hr
cm
rain 24hr
cm
rain mn
cm
humidity
%
barometer
mb
20200124023142 -6 0 0.0 0.0 0.00 0.03 0.03 62 1019.5
20200124022242 -6 0 0.0 0.0 0.00 0.03 0.03 62 1019.6
20200124021342 -6 0 0.0 0.0 0.00 0.03 0.03 62 1019.5
20200124020442 -6 0 0.0 0.0 0.00 0.03 0.03 62 1019.5
20200124015542 -5 0 0.0 0.0 0.00 0.03 0.03 61 1019.5
20200124014642 -5 0 0.0 0.0 0.00 0.03 0.03 61 1019.7
20200124013742 -5 0 0.0 0.0 0.00 0.03 0.03 60 1019.5
20200124012842 -5 0 0.0 0.0 0.00 0.03 0.03 60 1019.4
20200124011942 -5 0 0.0 0.0 0.00 0.03 0.03 60 1019.5
20200124011042 -5 0 0.0 0.0 0.00 0.03 0.03 59 1019.6
20200124010142 -4 0 0.0 0.0 0.00 0.03 0.03 59 1019.6
20200124005242 -4 0 0.0 0.0 0.00 0.03 0.03 59 1019.8
20200124004342 -4 0 0.0 0.0 0.00 0.03 0.03 57 1019.7
20200124003442 -3 0 0.0 0.0 0.00 0.03 0.03 57 1019.7
20200124002542 -3 0 0.0 0.0 0.00 0.03 0.03 57 1019.4
20200124001642 -3 0 0.0 0.0 0.00 0.03 0.03 56 1019.6
20200124000742 -3 45 0.0 1.6 0.00 0.03 0.03 56 1019.5
20200123235842 -3 0 0.0 0.0 0.00 0.03 0.03 55 1019.2
20200123234942 -3 0 0.0 0.0 0.00 0.03 0.03 54 1019.2
20200123234042 -3 0 0.0 0.0 0.00 0.03 0.03 53 1019.1
20200123233142 -3 0 0.0 0.0 0.00 0.03 0.03 53 1019.2
20200123232242 -2 181 0.0 1.6 0.00 0.03 0.03 53 1019.2
20200123231342 -2 0 0.0 0.0 0.00 0.03 0.03 52 1019.0
20200123230442 -2 0 0.0 0.0 0.00 0.03 0.03 56 1019.0
20200123225542 -2 22 0.0 1.6 0.00 0.03 0.03 56 1019.0
20200123224642 -2 45 0.0 1.6 0.00 0.03 0.03 55 1018.8
20200123223742 -2 0 0.0 0.0 0.00 0.03 0.03 55 1018.9
20200123222842 -1 0 0.0 0.0 0.00 0.03 0.03 55 1018.4
20200123221942 -1 0 0.0 0.0 0.00 0.03 0.03 54 1018.5
20200123221042 -1 0 0.0 0.0 0.00 0.03 0.03 53 1018.5
20200123220142 -1 0 0.0 0.0 0.00 0.03 0.03 52 1018.4
20200123215242 0 0 0.0 0.0 0.00 0.03 0.03 51 1018.5
20200123214342 0 0 0.0 0.0 0.00 0.03 0.03 51 1018.6
20200123213442 0 0 0.0 0.0 0.00 0.03 0.03 50 1018.3
20200123212542 0 0 0.0 0.0 0.00 0.03 0.03 50 1018.4
20200123211642 0 0 0.0 0.0 0.00 0.03 0.03 49 1018.4
20200123210742 0 0 0.0 0.0 0.00 0.03 0.03 49 1018.2
20200123205842 0 0 0.0 0.0 0.00 0.03 0.03 49 1018.2
20200123204942 0 0 0.0 0.0 0.00 0.03 0.03 48 1018.3
20200123204042 0 0 0.0 0.0 0.00 0.03 0.03 48 1018.4
20200123203142 0 0 0.0 0.0 0.00 0.03 0.03 47 1018.6
20200123202242 0 225 0.0 1.6 0.00 0.03 0.03 46 1018.5
20200123201342 0 220 0.0 1.6 0.00 0.03 0.03 46 1018.5
20200123200442 0 199 0.0 3.2 0.00 0.03 0.03 46 1018.7
20200123195542 1 213 0.0 3.2 0.00 0.03 0.03 47 1018.9
20200123194642 1 188 0.0 3.2 0.00 0.03 0.03 47 1018.7
20200123193742 1 174 0.0 3.2 0.00 0.03 0.03 48 1018.9
20200123192841 0 192 0.0 3.2 0.00 0.03 0.03 49 1018.8
20200123191941 0 204 0.0 3.2 0.00 0.03 0.03 49 1019.1
20200123191042 0 279 0.0 1.6 0.00 0.03 0.03 50 1019.2
20200123190142 0 102 0.0 1.6 0.00 0.03 0.03 50 1019.1
20200123185241 0 32 0.0 4.8 0.00 0.03 0.03 50 1019.2
20200123184341 0 32 3.2 4.8 0.00 0.03 0.03 50 1019.2
20200123183442 0 50 1.6 3.2 0.00 0.03 0.03 51 1019.5
20200123182542 0 26 0.0 4.8 0.00 0.03 0.03 51 1019.6
20200123181642 0 37 0.0 3.2 0.03 0.03 0.03 51 1019.7
20200123180742 0 34 0.0 6.4 0.03 0.03 0.03 51 1019.7
20200123175841 0 39 0.0 3.2 0.03 0.03 0.03 53 1019.7
20200123174941 0 50 1.6 3.2 0.03 0.03 0.03 53 1020.0
20200123174042 0 38 0.0 4.8 0.03 0.03 0.03 53 1019.9
20200123173142 -1 35 0.0 3.2 0.03 0.03 0.03 54 1019.9
20200123172242 -1 357 0.0 3.2 0.03 0.03 0.03 55 1020.0
20200123171341 -1 35 0.0 3.2 0.00 0.00 0.00 56 1020.3
20200123170442 -2 34 1.6 3.2 0.00 0.00 0.00 57 1020.4
20200123165542 -2 9 0.0 3.2 0.00 0.00 0.00 56 1020.6
20200123164642 -2 123 0.0 1.6 0.00 0.00 0.00 58 1020.6
20200123163742 -2 91 0.0 3.2 0.00 0.00 0.00 55 1020.7
20200123162841 -2 314 0.0 1.6 0.00 0.00 0.00 56 1020.8
20200123161941 -3 29 0.0 1.6 0.00 0.00 0.00 57 1020.8
20200123161041 -3 45 0.0 1.6 0.00 0.00 0.00 58 1020.9
20200123160142 -3 277 0.0 1.6 0.00 0.00 0.00 59 1020.9
20200123155242 -4 39 0.0 1.6 0.00 0.00 0.00 59 1021.2
20200123154342 -5 74 0.0 1.6 0.00 0.00 0.00 59 1021.1
20200123153441 -5 78 0.0 1.6 0.00 0.00 0.00 60 1021.4
20200123152541 -5 49 0.0 1.6 0.00 0.00 0.00 61 1021.5
20200123151641 -6 34 0.0 1.6 0.00 0.00 0.00 62 1021.3
20200123150741 -6 48 0.0 1.6 0.00 0.00 0.00 64 1021.5
20200123145841 -7 29 0.0 1.6 0.00 0.00 0.00 66 1021.4
20200123144941 -7 0 0.0 0.0 0.00 0.00 0.00 62 1021.7
20200123144041 -8 314 0.0 1.6 0.00 0.00 0.00 63 1021.6
20200123143142 -10 181 0.0 1.6 0.00 0.00 0.00 64 1021.6
20200123142242 -10 0 0.0 0.0 0.00 0.00 0.00 64 1021.4
20200123141341 -11 113 0.0 1.6 0.00 0.00 0.00 64 1021.5
20200123140442 -12 181 0.0 1.6 0.00 0.00 0.00 60 1021.4
20200123135542 -13 171 0.0 1.6 0.00 0.00 0.00 60 1021.3
20200123134642 -14 0 0.0 0.0 0.00 0.00 0.00 60 1020.9
20200123133741 -15 0 0.0 0.0 0.00 0.00 0.00 60 1021.2
20200123132842 -15 0 0.0 0.0 0.00 0.00 0.00 60 1021.0
20200123131941 -15 45 0.0 1.6 0.00 0.00 0.00 61 1020.9
20200123131041 -16 45 0.0 1.6 0.00 0.00 0.00 60 1021.1
20200123130141 -16 45 0.0 1.6 0.00 0.00 0.00 60 1021.2
20200123125242 -16 0 0.0 0.0 0.00 0.00 0.00 60 1021.0
20200123124342 -16 0 0.0 0.0 0.00 0.00 0.00 60 1021.1
20200123123442 -16 29 0.0 1.6 0.00 0.00 0.00 60 1020.8
20200123122541 -16 9 0.0 1.6 0.00 0.00 0.00 60 1020.7
20200123121641 -16 225 0.0 1.6 0.00 0.00 0.00 60 1020.9
20200123120741 -16 0 0.0 0.0 0.00 0.00 0.00 60 1020.7
20200123115841 -16 0 0.0 0.0 0.00 0.00 0.00 59 1020.8
20200123114941 -16 0 0.0 0.0 0.00 0.00 0.00 59 1020.7
20200123114041 -16 0 0.0 0.0 0.00 0.00 0.00 59 1020.9
20200123113141 -16 0 0.0 0.0 0.00 0.00 0.00 59 1020.9
20200123112241 -16 0 0.0 0.0 0.00 0.00 0.00 59 1021.1
20200123111341 -16 0 0.0 0.0 0.00 0.00 0.00 59 1020.8
20200123110441 -16 0 0.0 0.0 0.00 0.00 0.00 59 1020.6
20200123105541 -16 0 0.0 0.0 0.00 0.00 0.00 59 1020.6
20200123104641 -16 0 0.0 0.0 0.00 0.00 0.00 59 1020.9
20200123103741 -16 0 0.0 0.0 0.00 0.00 0.00 60 1020.5
20200123102841 -16 0 0.0 0.0 0.00 0.00 0.00 60 1020.5
20200123101941 -16 41 0.0 1.6 0.00 0.00 0.00 60 1020.5
20200123101041 -16 45 0.0 1.6 0.00 0.00 0.00 60 1020.5
20200123100141 -16 0 0.0 0.0 0.00 0.00 0.00 60 1020.8
20200123095241 -16 90 0.0 1.6 0.00 0.00 0.00 60 1020.9
20200123094341 -16 0 0.0 0.0 0.00 0.00 0.00 60 1020.9
20200123093441 -15 0 0.0 0.0 0.00 0.00 0.00 60 1021.2
20200123092541 -15 0 0.0 0.0 0.00 0.00 0.00 60 1021.1
20200123091641 -15 0 0.0 0.0 0.00 0.00 0.00 60 1021.0
20200123090741 -15 0 0.0 0.0 0.00 0.00 0.00 60 1021.0
20200123085841 -15 0 0.0 0.0 0.00 0.00 0.00 60 1021.1
20200123084941 -15 0 0.0 0.0 0.00 0.00 0.00 60 1021.0
20200123084041 -15 0 0.0 0.0 0.00 0.00 0.00 60 1021.1
20200123083141 -15 0 0.0 0.0 0.00 0.00 0.00 60 1020.9
20200123082241 -15 0 0.0 0.0 0.00 0.00 0.00 60 1021.0
20200123081341 -15 0 0.0 0.0 0.00 0.00 0.00 60 1021.1
20200123080442 -15 0 0.0 0.0 0.00 0.00 0.00 60 1021.2
20200123075541 -15 0 0.0 0.0 0.00 0.00 0.00 60 1021.2
20200123074641 -15 0 0.0 0.0 0.00 0.00 0.00 60 1021.3
20200123073741 -14 0 0.0 0.0 0.00 0.00 0.00 60 1021.4
20200123072841 -14 0 0.0 0.0 0.00 0.00 0.00 59 1021.3
20200123071941 -14 0 0.0 0.0 0.00 0.00 0.00 59 1021.6
20200123071041 -14 0 0.0 0.0 0.00 0.00 0.00 60 1021.5
20200123070141 -13 0 0.0 0.0 0.00 0.00 0.00 60 1021.6
20200123065241 -13 0 0.0 0.0 0.00 0.00 0.00 60 1021.3
20200123064341 -13 0 0.0 0.0 0.00 0.00 0.00 60 1021.1
20200123063441 -13 0 0.0 0.0 0.00 0.00 0.00 60 1021.2
20200123062541 -13 0 0.0 0.0 0.00 0.00 0.00 60 1021.1
20200123061641 -13 0 0.0 0.0 0.00 0.00 0.00 59 1020.9
20200123060741 -13 0 0.0 0.0 0.00 0.00 0.00 59 1020.9
20200123055841 -13 0 0.0 0.0 0.00 0.00 0.00 59 1020.9
20200123054941 -13 0 0.0 0.0 0.00 0.00 0.00 59 1020.8
20200123053141 -12 0 0.0 0.0 0.00 0.00 0.00 59 1020.6
20200123052241 -12 0 0.0 0.0 0.00 0.00 0.00 60 1020.7
20200123051341 -12 0 0.0 0.0 0.00 0.00 0.00 60 1020.9
20200123050441 -12 0 0.0 0.0 0.00 0.00 0.00 64 1020.7
20200123045541 -12 0 0.0 0.0 0.00 0.00 0.00 64 1020.8
20200123044641 -12 0 0.0 0.0 0.00 0.00 0.00 64 1020.7
20200123043741 -12 0 0.0 0.0 0.00 0.00 0.00 64 1020.9
20200123042841 -12 0 0.0 0.0 0.00 0.00 0.00 64 1021.2
20200123041941 -11 213 0.0 1.6 0.00 0.00 0.00 64 1021.1
20200123041041 -11 0 0.0 0.0 0.00 0.00 0.00 63 1020.9
20200123040141 -11 0 0.0 0.0 0.00 0.00 0.00 63 1021.0
20200123035241 -11 0 0.0 0.0 0.00 0.00 0.00 63 1021.2
20200123034341 -11 0 0.0 0.0 0.00 0.00 0.00 63 1021.3
20200123033441 -10 0 0.0 0.0 0.00 0.00 0.00 63 1021.3
20200123032541 -10 0 0.0 0.0 0.00 0.00 0.00 63 1021.4
20200123031641 -10 0 0.0 0.0 0.00 0.00 0.00 62 1021.6
20200123030741 -10 0 0.0 0.0 0.00 0.00 0.00 62 1021.7
20200123025841 -10 0 0.0 0.0 0.00 0.00 0.00 62 1021.9
20200123024941 -10 0 0.0 0.0 0.00 0.00 0.00 62 1021.8
20200123024041 -9 0 0.0 0.0 0.00 0.00 0.00 62 1021.6